TimeMST,TemperatureF,Dew PointF,Humidity,Sea Level PressureIn,VisibilityMPH,Wind Direction,Wind SpeedMPH,Gust SpeedMPH,PrecipitationIn,Events,Conditions,WindDirDegrees,DateUTC
12:53 AM,1.0,-2.0,87,30.32,10.0,Calm,Calm,-,N/A,,Clear,0,2013-02-12 07:53:00
1:53 AM,-0.0,-4.0,83,30.29,10.0,Calm,Calm,-,N/A,,Clear,0,2013-02-12 08:53:00
2:53 AM,1.0,-2.9,83,30.30,10.0,Calm,Calm,-,N/A,,Clear,0,2013-02-12 09:53:00
3:53 AM,3.9,1.9,91,30.29,10.0,Calm,Calm,-,N/A,,Overcast,0,2013-02-12 10:53:00
4:53 AM,9.0,6.1,88,30.27,10.0,Calm,Calm,-,N/A,,Overcast,0,2013-02-12 11:53:00
5:53 AM,10.9,8.1,88,30.29,8.0,Calm,Calm,-,N/A,,Overcast,0,2013-02-12 12:53:00
6:53 AM,12.0,9.0,88,30.29,8.0,Calm,Calm,-,N/A,,Overcast,0,2013-02-12 13:53:00
7:53 AM,16.0,12.9,88,30.28,6.0,NNW,4.6,-,N/A,,Overcast,340,2013-02-12 14:53:00
8:53 AM,19.9,15.1,81,30.31,8.0,NNW,6.9,-,N/A,,Overcast,340,2013-02-12 15:53:00
9:53 AM,27.0,19.0,72,30.32,10.0,NNE,6.9,-,N/A,,Overcast,20,2013-02-12 16:53:00
10:53 AM,30.9,21.0,67,30.30,10.0,North,5.8,-,N/A,,Overcast,350,2013-02-12 17:53:00
11:53 AM,32.0,21.0,64,30.31,10.0,NNW,5.8,-,N/A,,Overcast,340,2013-02-12 18:53:00
12:53 PM,34.0,21.0,59,30.29,10.0,NW,10.4,-,N/A,,Overcast,310,2013-02-12 19:53:00
1:53 PM,34.0,21.9,61,30.27,10.0,NW,11.5,-,N/A,,Overcast,310,2013-02-12 20:53:00
2:53 PM,34.0,21.0,59,30.26,10.0,NW,8.1,-,N/A,,Overcast,310,2013-02-12 21:53:00
3:53 PM,34.0,21.9,61,30.26,10.0,NW,11.5,-,N/A,,Overcast,320,2013-02-12 22:53:00
4:53 PM,33.1,21.9,64,30.27,10.0,NNW,8.1,-,N/A,,Overcast,330,2013-02-12 23:53:00
5:53 PM,32.0,23.0,69,30.25,10.0,NNW,9.2,-,N/A,,Overcast,330,2013-02-13 00:53:00
6:53 PM,30.9,21.9,69,30.27,10.0,NNW,6.9,-,N/A,,Overcast,340,2013-02-13 01:53:00
7:53 PM,30.9,23.0,72,30.24,10.0,NNE,6.9,-,N/A,,Overcast,20,2013-02-13 02:53:00
8:53 PM,30.9,23.0,72,30.21,10.0,Calm,Calm,-,N/A,,Overcast,0,2013-02-13 03:53:00
9:53 PM,30.9,21.9,69,30.16,10.0,Calm,Calm,-,N/A,,Overcast,0,2013-02-13 04:53:00
10:53 PM,32.0,21.0,64,30.14,10.0,Variable,4.6,-,N/A,,Overcast,0,2013-02-13 05:53:00
11:53 PM,33.1,21.0,61,30.11,10.0,SW,9.2,16.1,N/A,,Overcast,220,2013-02-13 06:53:00